This is the latest recevied weather packets stored in our database for station/object CT7BNL-13. If no packets are shown the sender has not sent any weather packets the latest 10 day(s).
| Time | Temp. | Humidity | Pressure | Rain* | Wind** | Luminosity | Snow |
|---|---|---|---|---|---|---|---|
| 1788394766 | 18.89° C | 83% | 1027.7 hPa | 0 mm | - | 0 W/m² | - |
| 1788393865 | 20° C | 78% | 1027.7 hPa | 0 mm | - | 0 W/m² | - |
| 1788392966 | 20.56° C | 76% | 1027.9 hPa | 0 mm | - | 0 W/m² | - |
| 1788392065 | 21.11° C | 73% | 1027.5 hPa | 0 mm | - | 0 W/m² | - |
| 1788391182 | 20.56° C | 75% | 1028.1 hPa | 0 mm | - | 0 W/m² | - |
| 1788390265 | 20.56° C | 77% | 1027.9 hPa | 0 mm | - | 0 W/m² | - |
| 1788389365 | 20.56° C | 76% | 1027.8 hPa | 0 mm | - | 0 W/m² | - |
| 1788388466 | 20.56° C | 75% | 1028 hPa | 0 mm | - | 0 W/m² | - |
| 1788387566 | 21.11° C | 75% | 1028 hPa | 0 mm | - | 0 W/m² | - |
| 1788386665 | 21.11° C | 75% | 1027.9 hPa | 0 mm | - | 0 W/m² | - |
| 1788385766 | 21.67° C | 72% | 1027.9 hPa | 0 mm | - | 0 W/m² | - |
| 1788384866 | 22.22° C | 69% | 1028.1 hPa | 0 mm | - | 0 W/m² | - |
| 1788383965 | 22.22° C | 68% | 1028.2 hPa | 0 mm | - | 0 W/m² | - |
| 1788383066 | 22.22° C | 67% | 1027.8 hPa | 0 mm | - | 0 W/m² | - |
| 1788382165 | 23.33° C | 67% | 1027.9 hPa | 0 mm | - | 0 W/m² | - |
| 1788380366 | 23.89° C | 62% | 1027.5 hPa | 0 mm | - | 0 W/m² | - |
| 1788379465 | 23.89° C | 63% | 1027.3 hPa | 0 mm | - | 0 W/m² | - |
| 1788378566 | 24.44° C | 61% | 1027.2 hPa | 0 mm | - | 0 W/m² | - |
| 1788377665 | 23.89° C | 64% | 1027 hPa | 0 mm | - | 0 W/m² | - |
| 1788376765 | 25° C | 60% | 1027 hPa | 0 mm | - | 0 W/m² | - |
| 1788375865 | 25.56° C | 56% | 1026.7 hPa | 0 mm | - | 4 W/m² | - |
| 1788374965 | 26.67° C | 53% | 1027.1 hPa | 0 mm | - | 14 W/m² | - |
| 1788374065 | 27.78° C | 48% | 1027 hPa | 0 mm | - | 29 W/m² | - |
| 1788373165 | 28.89° C | 45% | 1027 hPa | 0 mm | - | 47 W/m² | - |
| 1788372266 | 29.44° C | 45% | 1027.2 hPa | 0 mm | - | 72 W/m² | - |
* Rain latest hour (hover to see other rain measurements)
** Current wind speed in m/s (hover to see current wind gust speed)